Weather History for North Bend, OR

Change the Weather History Date:

Wednesday, February 6, 2013

  Actual Average Record
Temperature  
Mean Temperature 46 °F 46 °F  
Max Temperature 52 °F 52 °F 69 °F (1917)
Min Temperature 39 °F 40 °F 22 °F (1989)
Degree Days  
Heating Degree Days 19 19  
Month to date heating degree days 103 114  
Since 1 July heating degree days 2610 2769  
Cooling Degree Days 0 0  
Month to date cooling degree days 0 0  
Year to date cooling degree days 0 0  
Moisture  
Dew Point 44 °F    
Average Humidity 90    
Maximum Humidity 100    
Minimum Humidity 77    
Precipitation  
Precipitation 0.62 in 0.28 in 2.14 in (1938)
Month to date precipitation 0.76 1.67  
Year to date precipitation 4.71 11.86  
Sea Level Pressure  
Sea Level Pressure 30.07 in    
Wind  
Wind Speed 9 mph (South)    
Max Wind Speed 20 mph    
Max Gust Speed 35 mph    
Visibility 9 miles    
Events      
T = Trace of Precipitation, MM = Missing Value Source: NWS Daily Summary

Daily Weather History Graph

Daily Weather History Graph

Search for Another Location

Airport:

Trip Planner

Search our weather history database for the weather conditions in past years. The results will help you decide how hot, cold, wet, or windy it might be!

Date:

Astronomy

Feb. 06, 2013 Rise Set
Actual Time 7:26 AM PST 5:36 PM PST
Civil Twilight 6:56 AM PST 6:05 PM PST
Nautical Twilight 6:22 AM PST 6:39 PM PST
Astronomical Twilight 5:49 AM PST 7:13 PM PST
Moon 4:19 AM PST (2/6) 1:57 PM PST (2/6)
Length of Visible Light 11h 09m
Length of Day
10h 09m
Waning Crescent, 16% of the Moon is Illuminated
Feb 6
Waning Crescent
Feb 9
New
Feb 17
First Quarter
Feb 25
Full
Mar 4
Last Quarter

Hourly Weather History & Observations

Time (PST) Temp. Windchill Dew Point Humidity Pressure Visibility Wind Dir Wind Speed Gust Speed Precip Events Conditions
12:15 AM 46.4 °F 42.4 °F 44.6 °F 93% 30.16 in 10.0 mi West 8.1 mph - N/A   Overcast
12:35 AM 46.4 °F - 44.6 °F 93% 30.16 in 10.0 mi Calm Calm - N/A   Overcast
12:55 AM 44.6 °F 40.7 °F 42.8 °F 93% 30.15 in 8.0 mi SSE 6.9 mph - N/A   Mostly Cloudy
1:15 AM 46.4 °F 43.5 °F 46.4 °F 100% 30.15 in 10.0 mi South 5.8 mph - N/A   Mostly Cloudy
1:35 AM 46.4 °F 43.5 °F 44.6 °F 93% 30.16 in 10.0 mi SSE 5.8 mph - N/A   Overcast
1:55 AM 46.4 °F 44.3 °F 44.6 °F 93% 30.16 in 10.0 mi SSE 4.6 mph - 0.02 in   Overcast
2:15 AM 44.6 °F 42.2 °F 44.6 °F 100% 30.15 in 8.0 mi SSE 4.6 mph - N/A   Scattered Clouds
2:35 AM 44.6 °F 42.2 °F 44.6 °F 100% 30.16 in 7.0 mi South 4.6 mph - N/A   Mostly Cloudy
2:55 AM 44.6 °F 40.2 °F 44.6 °F 100% 30.16 in 7.0 mi SSE 8.1 mph - N/A   Overcast
3:15 AM 44.6 °F 41.4 °F 44.6 °F 100% 30.15 in 10.0 mi SSE 5.8 mph - N/A   Overcast
3:35 AM 44.6 °F 41.4 °F 44.6 °F 100% 30.15 in 10.0 mi South 5.8 mph - N/A   Scattered Clouds
3:55 AM 42.8 °F 40.1 °F 42.8 °F 100% 30.15 in 10.0 mi SSE 4.6 mph - N/A   Partly Cloudy
4:15 AM 42.8 °F 39.3 °F 42.8 °F 100% 30.15 in 10.0 mi South 5.8 mph - N/A   Partly Cloudy
4:35 AM 42.8 °F 39.3 °F 42.8 °F 100% 30.15 in 9.0 mi South 5.8 mph - N/A   Mostly Cloudy
4:55 AM 44.6 °F 41.4 °F 42.8 °F 93% 30.14 in 10.0 mi SSE 5.8 mph - N/A   Overcast
5:15 AM 44.6 °F 42.2 °F 44.6 °F 100% 30.15 in 10.0 mi SSE 4.6 mph - N/A   Overcast
5:35 AM 44.6 °F 43.1 °F 44.6 °F 100% 30.15 in 6.0 mi SSW 3.5 mph - 0.01 in   Overcast
5:55 AM 46.4 °F 42.9 °F 44.6 °F 93% 30.14 in 6.0 mi South 6.9 mph - 0.03 in   Overcast
6:15 AM 44.6 °F 41.4 °F 44.6 °F 100% 30.14 in 8.0 mi SSE 5.8 mph - 0.01 in   Overcast
6:35 AM 44.6 °F 41.4 °F 44.6 °F 100% 30.14 in 10.0 mi SSE 5.8 mph - 0.02 in   Mostly Cloudy
6:55 AM 46.4 °F 42.9 °F 44.6 °F 93% 30.14 in 9.0 mi SE 6.9 mph - 0.04 in   Overcast
7:15 AM 44.6 °F - 44.6 °F 100% 30.14 in 10.0 mi Calm Calm - N/A   Overcast
7:35 AM 44.6 °F 43.1 °F 42.8 °F 93% 30.14 in 5.0 mi SSW 3.5 mph - 0.03 in   Overcast
7:55 AM 44.6 °F 41.4 °F 42.8 °F 93% 30.14 in 10.0 mi SSE 5.8 mph - 0.04 in   Overcast
8:35 AM 44.6 °F 39.7 °F 42.8 °F 93% 30.14 in 7.0 mi SSE 9.2 mph - N/A   Mostly Cloudy
8:55 AM 44.6 °F 40.7 °F 42.8 °F 93% 30.14 in 10.0 mi SSE 6.9 mph - N/A   Mostly Cloudy
9:15 AM 46.4 °F 42.9 °F 44.6 °F 93% 30.14 in 9.0 mi SSE 6.9 mph - N/A   Overcast
9:35 AM 46.4 °F 42.9 °F 44.6 °F 93% 30.14 in 10.0 mi SSE 6.9 mph - N/A   Overcast
9:55 AM 46.4 °F 41.9 °F 46.4 °F 100% 30.14 in 10.0 mi SSE 9.2 mph - N/A   Overcast
10:15 AM 46.4 °F 41.9 °F 46.4 °F 100% 30.14 in 10.0 mi SSE 9.2 mph - 0.01 in   Overcast
10:35 AM 46.4 °F 42.9 °F 46.4 °F 100% 30.14 in 7.0 mi South 6.9 mph - 0.01 in   Overcast
10:55 AM 46.4 °F 43.5 °F 46.4 °F 100% 30.13 in 5.0 mi SSE 5.8 mph - 0.02 in   Overcast
11:15 AM 48.2 °F - 46.4 °F 93% 30.12 in 10.0 mi SSE 8.1 mph - 0.01 in   Mostly Cloudy
11:35 AM 50.0 °F - 46.4 °F 87% 30.11 in 10.0 mi SSE 10.4 mph - 0.01 in   Overcast
11:55 AM 50.0 °F - 46.4 °F 87% 30.10 in 10.0 mi South 9.2 mph - 0.01 in   Mostly Cloudy
12:15 PM 50.0 °F - 46.4 °F 87% 30.09 in 10.0 mi South 9.2 mph - N/A   Overcast
12:35 PM 51.8 °F - 46.4 °F 82% 30.08 in 10.0 mi South 10.4 mph 19.6 mph N/A   Mostly Cloudy
12:55 PM 51.8 °F - 44.6 °F 76% 30.06 in 10.0 mi SSE 11.5 mph - N/A   Scattered Clouds
1:15 PM 51.8 °F - 44.6 °F 76% 30.05 in 10.0 mi South 10.4 mph - N/A   Mostly Cloudy
1:35 PM 51.8 °F - 44.6 °F 76% 30.04 in 10.0 mi SSE 10.4 mph 16.1 mph N/A   Overcast
1:55 PM 51.8 °F - 44.6 °F 76% 30.03 in 10.0 mi South 10.4 mph - N/A   Overcast
2:15 PM 51.8 °F - 44.6 °F 76% 30.03 in 10.0 mi South 9.2 mph - N/A   Overcast
2:35 PM 51.8 °F - 44.6 °F 76% 30.02 in 10.0 mi SSW 9.2 mph - N/A   Overcast
2:55 PM 51.8 °F - 44.6 °F 76% 30.02 in 10.0 mi South 12.7 mph 16.1 mph N/A   Overcast
3:15 PM 50.0 °F - 44.6 °F 82% 30.02 in 9.0 mi SSW 11.5 mph 19.6 mph N/A   Mostly Cloudy
3:35 PM 50.0 °F - 44.6 °F 82% 30.01 in 10.0 mi SSW 13.8 mph 21.9 mph N/A   Mostly Cloudy
3:55 PM 51.8 °F - 44.6 °F 76% 30.01 in 10.0 mi SSW 9.2 mph 19.6 mph N/A   Overcast
4:15 PM 51.8 °F - 42.8 °F 71% 30.00 in 10.0 mi South 15.0 mph 28.8 mph N/A   Overcast
4:35 PM 50.0 °F - 42.8 °F 76% 30.00 in 10.0 mi South 15.0 mph 25.3 mph N/A   Mostly Cloudy
4:55 PM 48.2 °F - 42.8 °F 82% 29.98 in 10.0 mi South 15.0 mph 24.2 mph N/A   Mostly Cloudy
5:15 PM 48.2 °F - 42.8 °F 82% 29.98 in 10.0 mi South 18.4 mph 23.0 mph N/A   Overcast
5:35 PM 48.2 °F - 42.8 °F 82% 29.97 in 10.0 mi SSE 11.5 mph - N/A   Overcast
5:55 PM 48.2 °F - 42.8 °F 82% 29.96 in 10.0 mi South 10.4 mph - N/A   Overcast
6:15 PM 48.2 °F - 42.8 °F 82% 29.95 in 10.0 mi South 11.5 mph - N/A   Overcast
6:35 PM 48.2 °F - 41.0 °F 76% 29.95 in 10.0 mi South 10.4 mph - N/A   Overcast
6:55 PM 48.2 °F - 41.0 °F 76% 29.93 in 10.0 mi South 19.6 mph 25.3 mph N/A   Overcast
7:15 PM 48.2 °F - 41.0 °F 76% 29.93 in 10.0 mi SSE 13.8 mph 18.4 mph N/A   Overcast
7:35 PM 48.2 °F - 42.8 °F 82% 29.93 in 10.0 mi SSE 13.8 mph 17.3 mph N/A   Overcast
7:55 PM 46.4 °F 41.1 °F 42.8 °F 87% 29.93 in 10.0 mi South 11.5 mph 17.3 mph N/A   Overcast
8:15 PM 46.4 °F 40.7 °F 44.6 °F 93% 29.93 in 10.0 mi South 12.7 mph 17.3 mph N/A   Overcast
8:35 PM 46.4 °F 42.9 °F 44.6 °F 93% 29.93 in 10.0 mi South 6.9 mph - 0.02 in   Overcast
8:55 PM 42.8 °F 35.1 °F 39.2 °F 87% 29.97 in 5.0 mi WSW 16.1 mph 34.5 mph 0.10 in   Overcast
9:15 PM 42.8 °F 33.3 °F 39.2 °F 87% 29.99 in 9.0 mi West 24.2 mph - 0.10 in   Overcast
9:35 PM 42.8 °F 35.4 °F 39.2 °F 87% 29.99 in 10.0 mi WSW 15.0 mph - 0.17 in   Overcast
9:55 PM 42.8 °F 36.2 °F 39.2 °F 87% 30.00 in 10.0 mi West 12.7 mph - 0.25 in   Overcast
10:35 PM 41.0 °F 34.3 °F 39.2 °F 93% 30.01 in 10.0 mi SSE 11.5 mph - 0.11 in   Overcast
10:55 PM 41.0 °F 33.5 °F 39.2 °F 93% 30.01 in 10.0 mi SE 13.8 mph - 0.11 in   Overcast
11:15 PM 39.2 °F 31.6 °F 39.2 °F 100% 30.02 in 10.0 mi SSE 12.7 mph - N/A   Overcast
11:35 PM 39.2 °F 31.6 °F 39.2 °F 100% 30.02 in 10.0 mi SSE 12.7 mph - N/A   Overcast
11:55 PM 39.2 °F 32.0 °F 39.2 °F 100% 30.02 in 10.0 mi SSE 11.5 mph - N/A   Overcast